FW2068 Weather Reports


Display with metric or nautical units.
time (UTC)temp
F
wind
direction
speed
MPH
gust
MPH
rain 1hr
in
rain 24hr
in
rain mn
in
humidity
%
barometer
mb
20260508035417 63 122 0.0 2.0 0.00 0.00 0.00 79 1015.2
20260508034914 63 50 0.0 0.0 0.00 0.00 0.00 79 1015.3
20260508034411 63 69 1.0 2.0 0.00 0.00 0.00 78 1015.3
20260508033907 64 77 0.0 2.0 0.00 0.00 0.00 78 1015.2
20260508033406 64 92 2.0 3.0 0.00 0.00 0.00 77 1015.5
20260508032903 64 114 0.0 2.0 0.00 0.00 0.00 76 1015.3
20260508032400 64 82 0.0 2.0 0.00 0.00 0.00 76 1015.4
20260508031857 64 89 0.0 1.0 0.00 0.00 0.00 74 1015.3
20260508031354 64 83 1.0 2.0 0.00 0.00 0.00 74 1015.1
20260508030850 65 92 2.0 2.0 0.00 0.00 0.00 74 1015.2
20260508030347 65 76 0.0 2.0 0.00 0.00 0.00 73 1015.1
20260508025844 65 92 2.0 3.0 0.00 0.00 0.00 73 1015.0
20260508025341 65 76 1.0 2.0 0.00 0.00 0.00 73 1015.3
20260508024838 65 98 2.0 2.0 0.00 0.00 0.00 72 1015.1
20260508024334 65 71 0.0 1.0 0.00 0.00 0.00 72 1015.0
20260508023831 65 118 1.0 2.0 0.00 0.00 0.00 72 1015.3
20260508023328 65 93 1.0 2.0 0.00 0.00 0.00 72 1015.1
20260508022825 65 119 1.0 2.0 0.00 0.00 0.00 72 1015.2
20260508022321 65 79 0.0 2.0 0.00 0.00 0.00 71 1015.1
20260508021818 65 89 0.0 2.0 0.00 0.00 0.00 71 1015.0
20260508021314 65 107 0.0 2.0 0.00 0.00 0.00 70 1015.0
20260508020810 65 113 2.0 2.0 0.00 0.00 0.00 70 1014.8
20260508020308 66 97 1.0 2.0 0.00 0.00 0.00 70 1014.7
20260508015804 66 113 2.0 3.0 0.00 0.00 0.00 69 1014.7
20260508015305 66 102 1.0 3.0 0.00 0.00 0.00 70 1014.9
20260508014759 66 119 1.0 2.0 0.00 0.00 0.00 69 1014.8
20260508014256 66 115 2.0 2.0 0.00 0.00 0.00 70 1014.8
20260508013751 66 77 0.0 3.0 0.00 0.00 0.00 69 1015.0
20260508013248 66 100 3.0 4.0 0.00 0.00 0.00 69 1014.9
20260508012745 66 94 2.0 3.0 0.00 0.00 0.00 69 1014.8
20260508012242 66 131 3.0 3.0 0.00 0.00 0.00 68 1014.9
20260508011740 66 89 0.0 3.0 0.00 0.00 0.00 68 1014.9
20260508011237 66 138 2.0 2.0 0.00 0.00 0.00 67 1014.8
20260508010734 67 117 1.0 1.0 0.00 0.00 0.00 66 1014.7
20260508010232 67 122 1.0 2.0 0.00 0.00 0.00 66 1014.6
20260508005729 67 110 1.0 3.0 0.00 0.00 0.00 66 1014.8
20260508005226 67 107 1.0 3.0 0.00 0.00 0.00 66 1014.9
20260508004721 67 121 4.0 4.0 0.00 0.00 0.00 65 1014.7
20260508004218 67 101 2.0 4.0 0.00 0.00 0.00 67 1014.8
20260508003715 67 131 4.0 5.0 0.00 0.00 0.00 67 1014.9
20260508003212 67 128 2.0 4.0 0.00 0.00 0.00 67 1015.0
20260508002708 67 143 6.0 6.0 0.00 0.00 0.00 66 1015.0
20260508002206 67 161 4.0 6.0 0.00 0.00 0.00 65 1015.1
20260508001701 67 164 3.0 5.0 0.00 0.00 0.00 67 1015.0
20260508001157 67 125 0.0 4.0 0.00 0.00 0.00 65 1014.9
20260508000654 67 146 6.0 6.0 0.00 0.00 0.00 65 1014.9
20260508000151 68 137 3.0 6.0 0.00 0.00 0.00 64 1015.0
20260507235647 68 129 4.0 6.0 0.00 0.00 0.00 64 1015.0
20260507235145 67 106 3.0 6.0 0.00 0.00 0.00 65 1014.8
20260507234642 68 144 6.0 7.0 0.00 0.00 0.00 64 1015.0
20260507234138 68 128 4.0 8.0 0.00 0.00 0.00 64 1014.9
20260507233635 68 139 7.0 9.0 0.00 0.00 0.00 63 1014.9
20260507233134 68 138 6.0 8.0 0.00 0.00 0.00 64 1015.0
20260507232629 68 133 6.0 7.0 0.00 0.00 0.00 63 1015.1
20260507232127 68 124 4.0 7.0 0.00 0.00 0.00 63 1015.2
20260507231623 68 92 3.0 8.0 0.00 0.00 0.00 64 1015.2
20260507231121 68 138 6.0 9.0 0.00 0.00 0.00 64 1015.3
20260507230616 68 125 4.0 7.0 0.00 0.00 0.00 64 1015.1
20260507230114 68 124 7.0 8.0 0.00 0.00 0.00 65 1015.1
20260507225608 68 139 6.0 9.0 0.00 0.00 0.00 63 1015.3
20260507225105 68 115 3.0 8.0 0.00 0.00 0.00 64 1015.2
20260507224601 68 119 6.0 8.0 0.00 0.00 0.00 63 1015.4
20260507224058 69 98 3.0 8.0 0.00 0.00 0.00 62 1015.3
20260507223554 69 134 6.0 7.0 0.00 0.00 0.00 63 1015.2
20260507223051 69 142 5.0 9.0 0.00 0.00 0.00 63 1015.5
20260507222548 69 137 6.0 6.0 0.00 0.00 0.00 63 1015.3
20260507222044 69 136 6.0 7.0 0.00 0.00 0.00 62 1015.2
20260507221541 69 124 6.0 6.0 0.00 0.00 0.00 62 1015.4
20260507221038 69 140 6.0 8.0 0.00 0.00 0.00 62 1015.3
20260507220535 69 115 5.0 9.0 0.00 0.00 0.00 62 1015.3
20260507220032 69 140 9.0 10.0 0.00 0.00 0.00 63 1015.4
20260507215528 69 102 3.0 7.0 0.00 0.00 0.00 63 1015.3
20260507215027 69 145 5.0 10.0 0.00 0.00 0.00 64 1015.5
20260507214523 69 128 10.0 11.0 0.00 0.00 0.00 63 1015.5
20260507214019 69 139 5.0 8.0 0.00 0.00 0.00 62 1015.5
20260507213516 70 103 2.0 10.0 0.00 0.00 0.00 63 1015.6
20260507213013 70 136 6.0 7.0 0.00 0.00 0.00 63 1015.7
20260507212508 70 123 5.0 6.0 0.00 0.00 0.00 62 1015.8
20260507212005 70 122 4.0 7.0 0.00 0.00 0.00 61 1015.8
20260507211502 70 151 5.0 6.0 0.00 0.00 0.00 60 1015.8
20260507210958 71 142 3.0 7.0 0.00 0.00 0.00 58 1015.8
20260507210455 70 127 7.0 7.0 0.00 0.00 0.00 59 1015.8
20260507205952 70 107 3.0 5.0 0.00 0.00 0.00 60 1015.9
20260507205449 70 129 6.0 9.0 0.00 0.00 0.00 61 1015.9
20260507204945 70 138 5.0 8.0 0.00 0.00 0.00 60 1015.7
20260507204442 71 128 6.0 7.0 0.00 0.00 0.00 60 1015.7
20260507203940 72 92 4.0 6.0 0.00 0.00 0.00 57 1015.7
20260507203437 71 71 4.0 6.0 0.00 0.00 0.00 57 1015.7
20260507202934 71 127 2.0 6.0 0.00 0.00 0.00 57 1015.9
20260507202430 71 122 2.0 5.0 0.00 0.00 0.00 56 1016.0
20260507201926 71 98 3.0 4.0 0.00 0.00 0.00 56 1016.3
20260507201421 71 53 2.0 5.0 0.00 0.00 0.00 57 1016.2
20260507200919 70 86 3.0 8.0 0.00 0.00 0.00 56 1016.2
20260507200414 71 107 2.0 6.0 0.00 0.00 0.00 58 1016.3
20260507195910 70 132 4.0 7.0 0.00 0.00 0.00 59 1016.3
20260507195408 72 86 2.0 9.0 0.00 0.00 0.00 55 1016.5
20260507194905 73 133 0.0 3.0 0.00 0.00 0.00 54 1016.4
20260507194401 73 65 0.0 5.0 0.00 0.00 0.00 54 1016.7
20260507193857 72 100 2.0 2.0 0.00 0.00 0.00 54 1016.7
20260507193355 72 293 2.0 3.0 0.00 0.00 0.00 53 1016.7
20260507192851 72 349 2.0 3.0 0.00 0.00 0.00 53 1017.0
20260507192347 71 107 3.0 8.0 0.00 0.00 0.00 53 1016.9
20260507191844 72 146 4.0 6.0 0.00 0.00 0.00 56 1017.1
20260507191340 72 357 3.0 5.0 0.00 0.00 0.00 53 1017.0
20260507190837 73 167 2.0 6.0 0.00 0.00 0.00 54 1017.1
20260507190335 72 150 0.0 4.0 0.00 0.00 0.00 53 1017.2
20260507185834 71 8 4.0 7.0 0.00 0.00 0.00 54 1017.0
20260507185330 71 318 3.0 5.0 0.00 0.00 0.00 54 1016.9
20260507184828 72 109 3.0 4.0 0.00 0.00 0.00 53 1017.0
20260507184326 73 75 2.0 4.0 0.00 0.00 0.00 54 1017.0
20260507183822 72 15 2.0 5.0 0.00 0.00 0.00 53 1016.9
20260507183319 73 346 3.0 4.0 0.00 0.00 0.00 54 1017.0
20260507182817 72 104 4.0 4.0 0.00 0.00 0.00 55 1017.2
20260507182312 70 278 2.0 4.0 0.00 0.00 0.00 56 1017.3
20260507181809 70 332 3.0 5.0 0.00 0.00 0.00 54 1017.4
20260507181305 70 322 2.0 7.0 0.00 0.00 0.00 55 1017.4
20260507180801 71 347 2.0 3.0 0.00 0.00 0.00 55 1017.4
20260507180259 70 248 1.0 6.0 0.00 0.00 0.00 56 1017.6
20260507175754 72 355 2.0 3.0 0.00 0.00 0.00 56 1017.7
20260507175251 70 17 0.0 5.0 0.00 0.00 0.00 55 1017.7
20260507174748 71 343 3.0 4.0 0.00 0.00 0.00 56 1017.7
20260507174246 71 314 3.0 6.0 0.00 0.00 0.00 55 1017.7
20260507173744 70 286 3.0 7.0 0.00 0.00 0.00 59 1017.7
20260507173241 70 330 2.0 5.0 0.00 0.00 0.00 57 1017.8
20260507172737 68 343 1.0 5.0 0.00 0.00 0.00 60 1017.9
20260507172234 69 338 4.0 6.0 0.00 0.00 0.00 58 1018.0
20260507171734 71 244 0.0 4.0 0.00 0.00 0.00 58 1018.3
20260507171232 71 115 1.0 3.0 0.00 0.00 0.00 57 1018.4
20260507170729 70 75 1.0 4.0 0.00 0.00 0.00 59 1018.6
20260507170225 71 209 2.0 5.0 0.00 0.00 0.00 58 1018.7
20260507165721 69 10 2.0 5.0 0.00 0.00 0.00 59 1018.7
20260507165217 69 86 2.0 4.0 0.00 0.00 0.00 64 1018.7
20260507164713 68 123 3.0 6.0 0.00 0.00 0.00 60 1019.1
20260507164211 69 305 1.0 4.0 0.00 0.00 0.00 57 1018.9
20260507163708 69 343 1.0 4.0 0.00 0.00 0.00 58 1019.2
20260507163206 68 326 2.0 6.0 0.00 0.00 0.00 61 1019.2
20260507162702 68 333 2.0 4.0 0.00 0.00 0.00 63 1019.2
20260507162158 67 350 4.0 4.0 0.00 0.00 0.00 63 1019.3
20260507161654 67 307 4.0 4.0 0.00 0.00 0.00 62 1019.3
20260507161150 67 41 1.0 4.0 0.00 0.00 0.00 64 1019.0
20260507160647 67 69 0.0 4.0 0.00 0.00 0.00 65 1019.2
20260507160144 67 298 4.0 5.0 0.00 0.00 0.00 65 1018.9
20260507155639 68 5 2.0 5.0 0.00 0.00 0.00 65 1019.2
20260507155136 68 95 1.0 4.0 0.00 0.00 0.00 65 1018.9
20260507154633 66 290 4.0 4.0 0.00 0.00 0.00 67 1018.9
20260507154131 66 42 2.0 4.0 0.00 0.00 0.00 66 1019.1
20260507153626 67 272 1.0 6.0 0.00 0.00 0.00 67 1019.2
20260507153123 66 302 2.0 4.0 0.00 0.00 0.00 67 1019.4
20260507152620 66 21 1.0 4.0 0.00 0.00 0.00 66 1019.4
20260507152116 64 285 4.0 5.0 0.00 0.00 0.00 70 1019.6
20260507151612 64 297 3.0 4.0 0.00 0.00 0.00 68 1019.7
20260507151109 65 241 2.0 4.0 0.00 0.00 0.00 68 1019.6
20260507150606 63 339 2.0 4.0 0.00 0.00 0.00 72 1019.5
20260507145557 64 290 2.0 4.0 0.00 0.00 0.00 73 1019.6
20260507145050 63 83 0.0 5.0 0.00 0.00 0.00 75 1019.6
20260507144546 64 207 2.0 2.0 0.00 0.00 0.00 73 1019.6
20260507144044 63 274 1.0 3.0 0.00 0.00 0.00 74 1019.8
20260507143540 62 27 2.0 4.0 0.00 0.00 0.00 76 1019.5
20260507143038 62 287 3.0 6.0 0.00 0.00 0.00 74 1019.4
20260507142533 62 169 2.0 5.0 0.00 0.00 0.00 75 1019.7
20260507142031 63 318 2.0 4.0 0.00 0.00 0.00 73 1019.7
20260507141527 62 260 0.0 3.0 0.00 0.00 0.00 76 1019.8
20260507141024 61 346 1.0 3.0 0.00 0.00 0.00 79 1019.8
20260507140521 61 316 2.0 4.0 0.00 0.00 0.00 77 1019.8
20260507140018 60 296 2.0 5.0 0.00 0.00 0.00 81 1019.7
20260507135514 59 295 3.0 4.0 0.00 0.00 0.00 83 1020.3
20260507135012 59 282 0.0 2.0 0.00 0.00 0.00 85 1020.1
20260507134508 58 306 2.0 4.0 0.00 0.00 0.00 85 1020.3
20260507134004 58 326 2.0 4.0 0.00 0.00 0.00 84 1020.3
20260507133500 58 306 2.0 3.0 0.00 0.00 0.00 82 1020.1
20260507132959 59 309 1.0 2.0 0.00 0.00 0.00 81 1020.3
20260507132455 58 322 0.0 1.0 0.00 0.00 0.00 82 1020.1
20260507131951 57 0 2.0 2.0 0.00 0.00 0.00 85 1020.0
20260507131448 56 55 0.0 2.0 0.00 0.00 0.00 87 1020.3
20260507130945 56 344 2.0 4.0 0.00 0.00 0.00 87 1020.5
20260507130442 56 288 1.0 3.0 0.00 0.00 0.00 87 1020.1
20260507125941 55 30 0.0 2.0 0.00 0.00 0.00 88 1020.1
20260507125439 55 309 0.0 3.0 0.00 0.00 0.00 89 1020.1
20260507124936 54 298 2.0 3.0 0.00 0.00 0.00 89 1020.3
20260507124432 54 278 0.0 2.0 0.00 0.00 0.00 90 1020.1
20260507123930 54 34 0.0 1.0 0.00 0.00 0.00 91 1019.9
20260507123427 54 10 0.0 1.0 0.00 0.00 0.00 91 1019.7
20260507122923 53 325 0.0 2.0 0.00 0.00 0.00 92 1019.6
20260507122419 53 330 1.0 1.0 0.00 0.00 0.00 92 1019.9
20260507121915 53 350 0.0 2.0 0.00 0.00 0.00 93 1019.9
20260507121410 53 345 1.0 2.0 0.00 0.00 0.00 93 1019.9
20260507120907 53 169 0.0 1.0 0.00 0.00 0.00 93 1019.7
20260507120404 52 173 0.0 1.0 0.00 0.00 0.00 93 1019.7
20260507115900 52 232 0.0 2.0 0.00 0.00 0.00 93 1019.7
20260507115356 52 33 0.0 2.0 0.00 0.00 0.00 93 1019.7
20260507114852 52 337 2.0 2.0 0.00 0.00 0.00 93 1019.5
20260507114349 52 328 2.0 2.0 0.00 0.00 0.00 94 1019.5
20260507113846 52 276 1.0 3.0 0.00 0.00 0.00 94 1019.4
20260507113343 52 0 0.0 2.0 0.00 0.00 0.00 94 1019.2
20260507112841 52 76 0.0 2.0 0.00 0.00 0.00 93 1019.2
20260507112337 52 272 1.0 1.0 0.00 0.00 0.00 93 1019.0
20260507111836 52 314 0.0 2.0 0.00 0.00 0.00 93 1019.1
20260507111332 52 358 0.0 1.0 0.00 0.00 0.00 93 1019.3
20260507110828 52 301 0.0 2.0 0.00 0.00 0.00 93 1019.2
20260507110324 52 330 0.0 1.0 0.00 0.00 0.00 92 1018.8
20260507105821 52 296 1.0 2.0 0.00 0.00 0.00 92 1018.8
20260507105318 52 319 1.0 2.0 0.00 0.00 0.00 92 1018.5
20260507104815 53 337 0.0 2.0 0.00 0.00 0.00 92 1018.3
20260507104311 52 334 2.0 4.0 0.00 0.00 0.00 92 1017.8
20260507103807 52 2 1.0 3.0 0.00 0.00 0.00 92 1017.9
20260507103304 53 295 2.0 4.0 0.00 0.00 0.00 92 1017.8
20260507102801 52 323 2.0 4.0 0.00 0.00 0.00 92 1017.5
20260507102257 52 324 2.0 3.0 0.00 0.00 0.00 92 1017.5
20260507101754 52 18 3.0 3.0 0.00 0.00 0.00 92 1017.3
20260507101253 52 336 0.0 3.0 0.00 0.00 0.00 92 1017.7
20260507100751 53 208 0.0 4.0 0.00 0.00 0.00 92 1017.8
20260507100249 53 53 0.0 2.0 0.00 0.00 0.00 92 1017.5
20260507095747 53 321 0.0 2.0 0.00 0.00 0.00 92 1017.7
20260507095243 53 15 2.0 2.0 0.00 0.00 0.00 92 1017.7
20260507094740 53 13 0.0 2.0 0.00 0.00 0.00 92 1017.7
20260507094237 53 13 0.0 2.0 0.00 0.00 0.00 92 1017.6
20260507093734 53 339 2.0 2.0 0.00 0.00 0.00 92 1017.9
20260507093232 53 122 0.0 3.0 0.00 0.00 0.00 92 1017.6
20260507092730 53 342 1.0 3.0 0.00 0.00 0.00 92 1017.5
20260507092225 53 43 3.0 3.0 0.00 0.00 0.00 92 1017.7
20260507091722 53 320 0.0 2.0 0.00 0.00 0.00 92 1017.5
20260507091219 53 318 2.0 4.0 0.00 0.00 0.00 92 1017.4
20260507090714 53 356 2.0 3.0 0.00 0.00 0.00 92 1017.4
20260507090211 53 204 0.0 2.0 0.00 0.00 0.00 92 1017.3
20260507085708 53 55 0.0 2.0 0.00 0.00 0.00 92 1017.4
20260507085205 53 5 1.0 2.0 0.00 0.00 0.00 93 1017.6
20260507084702 53 25 1.0 4.0 0.00 0.00 0.00 93 1017.3
20260507084158 53 61 1.0 2.0 0.00 0.00 0.00 93 1017.2
20260507083655 53 307 2.0 4.0 0.00 0.00 0.00 93 1017.2
20260507083152 53 12 1.0 3.0 0.00 0.00 0.00 93 1017.3
20260507082648 53 27 2.0 4.0 0.00 0.00 0.00 93 1017.2
20260507082144 53 283 0.0 2.0 0.00 0.00 0.00 93 1017.1
20260507081641 53 314 0.0 3.0 0.00 0.00 0.00 93 1017.1
20260507081137 53 102 0.0 3.0 0.00 0.00 0.00 94 1017.1
20260507080634 53 113 1.0 2.0 0.00 0.00 0.00 93 1017.0
20260507080131 53 228 0.0 2.0 0.00 0.00 0.00 93 1016.8
20260507075631 54 86 1.0 3.0 0.00 0.00 0.00 93 1016.9
20260507075127 54 7 3.0 4.0 0.00 0.00 0.00 94 1016.7
20260507074624 54 175 0.0 2.0 0.00 0.00 0.00 94 1016.6
20260507074122 54 99 0.0 2.0 0.00 0.00 0.00 94 1016.7
20260507073618 54 34 0.0 3.0 0.00 0.00 0.00 93 1016.6
20260507073114 54 0 3.0 3.0 0.00 0.00 0.00 93 1016.8
20260507072613 54 52 1.0 2.0 0.00 0.00 0.00 93 1016.5
20260507072109 54 299 0.0 3.0 0.00 0.00 0.00 93 1016.7
20260507071607 54 252 0.0 3.0 0.00 0.00 0.00 93 1016.6
20260507071103 54 74 2.0 2.0 0.00 0.00 0.00 93 1016.6
20260507070600 54 115 2.0 2.0 0.00 0.00 0.00 93 1016.5
20260507070057 55 124 0.0 3.0 0.00 0.00 0.00 93 1016.6
20260507065553 55 15 0.0 2.0 0.00 0.00 0.00 93 1016.6
20260507065051 55 174 0.0 3.0 0.00 0.00 0.00 93 1016.7
20260507064549 55 166 0.0 2.0 0.00 0.00 0.00 93 1016.6
20260507064047 55 59 1.0 2.0 0.00 0.00 0.00 92 1016.8
20260507063544 55 178 1.0 2.0 0.00 0.00 0.00 92 1016.8
20260507063041 55 151 0.0 3.0 0.00 0.00 0.00 92 1016.9
20260507062537 55 96 2.0 4.0 0.00 0.00 0.00 92 1016.8
20260507062035 55 125 0.0 4.0 0.00 0.00 0.00 92 1016.6
20260507061533 55 114 1.0 5.0 0.00 0.00 0.00 92 1016.7
20260507061031 55 92 2.0 6.0 0.00 0.00 0.00 92 1016.5
20260507060528 56 99 2.0 6.0 0.00 0.00 0.00 91 1016.7
20260507060025 56 95 2.0 6.0 0.00 0.00 0.00 91 1016.6
20260507055525 56 325 0.0 4.0 0.00 0.00 0.00 91 1016.6
20260507055022 56 98 3.0 6.0 0.00 0.00 0.00 91 1016.6
20260507054518 56 343 2.0 4.0 0.00 0.00 0.00 91 1016.8
20260507054015 56 78 3.0 3.0 0.00 0.00 0.00 90 1016.9
20260507053513 56 109 1.0 2.0 0.00 0.00 0.00 90 1016.7
20260507053012 56 20 0.0 3.0 0.00 0.00 0.00 90 1016.8
20260507052509 56 123 2.0 3.0 0.00 0.00 0.00 89 1016.8
20260507052005 57 55 2.0 4.0 0.00 0.00 0.00 89 1016.8
20260507051503 57 87 1.0 3.0 0.00 0.00 0.00 88 1016.8
20260507051000 57 193 2.0 5.0 0.00 0.00 0.00 88 1016.8
20260507050456 57 66 2.0 5.0 0.00 0.00 0.00 87 1016.8
20260507045953 57 131 0.0 4.0 0.00 0.09 0.09 87 1016.9
20260507045449 57 81 1.0 4.0 0.00 0.09 0.09 86 1017.0
20260507044947 57 130 0.0 3.0 0.00 0.09 0.09 86 1016.9
20260507044443 58 337 2.0 3.0 0.00 0.09 0.09 85 1017.0
20260507043940 58 112 0.0 4.0 0.00 0.09 0.09 85 1017.0
20260507043436 58 336 1.0 4.0 0.00 0.09 0.09 85 1017.0
20260507042932 58 27 4.0 5.0 0.00 0.09 0.09 84 1017.1
20260507042429 58 48 2.0 5.0 0.00 0.09 0.09 84 1017.0
20260507041925 58 322 2.0 4.0 0.00 0.09 0.09 84 1017.3
20260507041422 58 336 2.0 5.0 0.00 0.09 0.09 84 1017.5
20260507040919 58 350 2.0 4.0 0.00 0.09 0.09 84 1017.3
20260507040415 58 141 2.0 5.0 0.00 0.09 0.09 84 1017.3